View from above orbital plane
|
View from above satellite
|
Ground track
|
The orbit data is extracted from the following two-line orbital elements,
1 25338U 98030A 21110.12994450 .00000055 00000-0 41309-4 0 9991
2 25338 98.6880 139.1603 0011577 91.4315 268.8191 14.26023072192935
Epoch (UTC): | 20 April 2021 03:07:07 |
Eccentricity: | 0.0011577 |
inclination: | 98.6880° |
perigee height: | 797 km |
apogee height: | 813 km |
right ascension of ascending node: | 139.1603° |
argument of perigee: | 91.4315° |
revolutions per day: | 14.26023072 |
mean anomaly at epoch: | 268.8191° |
orbit number at epoch: | 19293 |
The dashed part of the orbit path shows where the satellite is in the earth's shadow,
|
|